FW4025 Weather Reports


time (UTC)temp
C
wind
direction
speed
KPH
gust
KPH
rain 1hr
cm
rain 24hr
cm
rain mn
cm
humidity
%
barometer
mb
20260504204547 21 107 16.1 43.5 0.00 0.00 0.00 42 1009.3
20260504203040 21 98 14.5 27.4 0.00 0.00 0.00 40 1009.1
20260504201532 21 105 16.1 40.2 0.00 0.00 0.00 42 1009.4
20260504200029 20 67 9.7 27.4 0.00 0.00 0.00 39 1009.6
20260504194539 20 86 19.3 29.0 0.00 0.00 0.00 44 1009.4
20260504193023 20 84 20.9 32.2 0.00 0.00 0.00 44 1009.7
20260504191518 20 88 24.1 35.4 0.00 0.00 0.00 41 1009.7
20260504190013 20 98 16.1 29.0 0.00 0.00 0.00 42 1009.8
20260504184512 20 93 14.5 37.0 0.00 0.00 0.00 46 1009.9
20260504183006 19 67 22.5 33.8 0.00 0.00 0.00 45 1009.9
20260504181501 19 92 19.3 37.0 0.00 0.00 0.00 42 1009.9
20260504180155 18 69 20.9 33.8 0.00 0.00 0.00 45 1010.0
20260504174554 19 85 16.1 35.4 0.00 0.00 0.00 43 1009.8
20260504173059 18 94 20.9 35.4 0.00 0.00 0.00 44 1009.7
20260504171545 18 103 22.5 46.7 0.00 0.00 0.00 46 1009.8
20260504140112 8 317 3.2 9.7 0.00 0.00 0.00 88 1009.8
20260504081558 8 293 0.0 3.2 0.00 0.00 0.00 87 1008.3
20260504050104 12 254 1.6 6.4 0.00 0.00 0.00 79 1008.1
20260504044537 12 260 0.0 3.2 0.00 0.00 0.00 77 1008.1
20260504043037 13 311 0.0 1.6 0.00 0.00 0.00 75 1008.0
20260504041537 13 311 0.0 4.8 0.00 0.00 0.00 68 1008.0
20260504040040 14 267 0.0 3.2 0.00 0.00 0.00 67 1007.9
20260504034546 15 267 0.0 3.2 0.00 0.00 0.00 64 1007.3
20260504033035 16 267 0.0 3.2 0.00 0.00 0.00 62 1007.6
20260504031545 17 270 1.6 3.2 0.00 0.00 0.00 60 1007.6
20260504030040 18 327 1.6 4.8 0.00 0.00 0.00 56 1007.5
20260504024538 19 333 3.2 8.0 0.00 0.00 0.00 51 1007.6
20260504023033 20 279 3.2 6.4 0.00 0.00 0.00 49 1007.5
20260504021532 21 304 3.2 6.4 0.00 0.00 0.00 46 1007.5
20260504020038 22 275 0.0 4.8 0.00 0.00 0.00 43 1007.5
20260504014529 23 221 0.0 6.4 0.00 0.00 0.00 37 1007.5
20260504013029 23 215 4.8 12.9 0.00 0.00 0.00 36 1007.6
20260504011527 23 28 3.2 9.7 0.00 0.00 0.00 35 1007.8
20260504010025 23 144 3.2 6.4 0.00 0.00 0.00 37 1008.0
20260504004525 24 238 3.2 9.7 0.00 0.00 0.00 36 1008.0
20260504003022 25 307 1.6 6.4 0.00 0.00 0.00 35 1008.3
20260504001521 25 108 6.4 12.9 0.00 0.00 0.00 31 1008.5
20260504000021 25 220 1.6 9.7 0.00 0.00 0.00 30 1008.5
20260503234524 26 142 1.6 16.1 0.00 0.00 0.00 32 1008.6
20260503233018 25 84 1.6 16.1 0.00 0.00 0.00 30 1008.9
20260503231519 25 125 1.6 12.9 0.00 0.00 0.00 29 1009.1
20260503230015 26 331 3.2 12.9 0.00 0.00 0.00 28 1009.4
20260503224511 25 202 4.8 11.3 0.00 0.00 0.00 28 1009.7
20260503223020 25 96 3.2 12.9 0.00 0.00 0.00 30 1010.0
20260503221504 24 322 1.6 11.3 0.00 0.00 0.00 32 1010.2
20260503220002 23 136 4.8 12.9 0.00 0.00 0.00 35 1010.5
20260503214559 23 79 3.2 12.9 0.00 0.00 0.00 31 1010.7
20260503213123 22 75 3.2 14.5 0.00 0.00 0.00 39 1011.0
20260503211616 22 119 8.0 14.5 0.00 0.00 0.00 41 1011.1
20260503210045 21 116 11.3 16.1 0.00 0.00 0.00 41 1011.5